| time (UTC) | temp F | wind direction | speed MPH | gust MPH | rain 1hr in | rain 24hr in | rain mn in | humidity % | barometer mb |
| 20260905163051 | 83 | 5 | 1.0 | 8.0 | 0.00 | 0.00 | 0.00 | 54 | 1022.7 |
| 20260905161547 | 83 | 105 | 2.0 | 6.0 | 0.00 | 0.00 | 0.00 | 54 | 1022.8 |
| 20260905160045 | 82 | 11 | 3.0 | 8.0 | 0.00 | 0.00 | 0.00 | 54 | 1022.9 |
| 20260905154544 | 83 | 75 | 2.0 | 9.0 | 0.00 | 0.00 | 0.00 | 54 | 1023.0 |
| 20260905153054 | 83 | 360 | 2.0 | 8.0 | 0.00 | 0.00 | 0.00 | 54 | 1022.9 |
| 20260905151547 | 83 | 140 | 1.0 | 7.0 | 0.00 | 0.00 | 0.00 | 53 | 1023.2 |
| 20260905150046 | 83 | 360 | 0.0 | 5.0 | 0.00 | 0.00 | 0.00 | 55 | 1023.5 |
| 20260905144547 | 83 | 118 | 2.0 | 7.0 | 0.00 | 0.00 | 0.00 | 56 | 1023.5 |
| 20260905143048 | 83 | 116 | 1.0 | 6.0 | 0.00 | 0.00 | 0.00 | 56 | 1023.8 |
| 20260905141553 | 83 | 93 | 1.0 | 5.0 | 0.00 | 0.00 | 0.00 | 57 | 1023.9 |
| 20260905140046 | 83 | 87 | 1.0 | 6.0 | 0.00 | 0.00 | 0.00 | 57 | 1023.8 |
| 20260905134543 | 82 | 0 | 0.0 | 5.0 | 0.00 | 0.00 | 0.00 | 57 | 1024.0 |
| 20260905133047 | 81 | 349 | 2.0 | 6.0 | 0.00 | 0.00 | 0.00 | 57 | 1024.3 |
| 20260905131559 | 81 | 200 | 1.0 | 5.0 | 0.00 | 0.00 | 0.00 | 60 | 1024.4 |
| 20260905130049 | 80 | 136 | 0.0 | 5.0 | 0.00 | 0.00 | 0.00 | 60 | 1024.6 |
| 20260905124549 | 80 | 155 | 1.0 | 4.0 | 0.00 | 0.00 | 0.00 | 61 | 1024.8 |
| 20260905123049 | 81 | 89 | 0.0 | 4.0 | 0.00 | 0.00 | 0.00 | 60 | 1024.8 |
| 20260905121542 | 80 | 0 | 0.0 | 3.0 | 0.00 | 0.00 | 0.00 | 61 | 1025.0 |
| 20260905120049 | 80 | 59 | 0.0 | 6.0 | 0.00 | 0.00 | 0.00 | 61 | 1024.9 |
| 20260905114544 | 80 | 53 | 1.0 | 6.0 | 0.00 | 0.00 | 0.00 | 62 | 1025.0 |
| 20260905113043 | 79 | 0 | 1.0 | 4.0 | 0.00 | 0.00 | 0.00 | 63 | 1025.0 |
| 20260905111606 | 79 | 0 | 1.0 | 5.0 | 0.00 | 0.00 | 0.00 | 63 | 1025.1 |
| 20260905110051 | 78 | 36 | 0.0 | 4.0 | 0.00 | 0.00 | 0.00 | 65 | 1025.3 |
| 20260905104545 | 77 | 0 | 1.0 | 6.0 | 0.00 | 0.00 | 0.00 | 66 | 1025.3 |
| 20260905103042 | 76 | 0 | 1.0 | 4.0 | 0.00 | 0.00 | 0.00 | 68 | 1025.4 |
| 20260905101547 | 75 | 98 | 1.0 | 7.0 | 0.00 | 0.00 | 0.00 | 70 | 1025.6 |
| 20260905100046 | 75 | 19 | 1.0 | 5.0 | 0.00 | 0.00 | 0.00 | 71 | 1025.5 |
| 20260905094542 | 74 | 90 | 2.0 | 7.0 | 0.00 | 0.00 | 0.00 | 71 | 1025.5 |
| 20260905093043 | 74 | 351 | 1.0 | 7.0 | 0.00 | 0.00 | 0.00 | 72 | 1025.6 |
| 20260905091549 | 74 | 0 | 2.0 | 4.0 | 0.00 | 0.00 | 0.00 | 73 | 1025.5 |
| 20260905090046 | 73 | 118 | 0.0 | 3.0 | 0.00 | 0.00 | 0.00 | 76 | 1025.5 |
| 20260905084542 | 71 | 0 | 1.0 | 4.0 | 0.00 | 0.00 | 0.00 | 79 | 1025.5 |
| 20260905083042 | 69 | 0 | 0.0 | 1.0 | 0.00 | 0.00 | 0.00 | 84 | 1025.5 |
| 20260905081548 | 68 | 95 | 0.0 | 3.0 | 0.00 | 0.00 | 0.00 | 86 | 1025.4 |
| 20260905080042 | 67 | 0 | 0.0 | 3.0 | 0.00 | 0.00 | 0.00 | 87 | 1025.3 |
| 20260905074555 | 66 | 0 | 0.0 | 3.0 | 0.00 | 0.00 | 0.00 | 89 | 1025.2 |
| 20260905073058 | 66 | 0 | 0.0 | 3.0 | 0.00 | 0.00 | 0.00 | 91 | 1025.2 |
| 20260905071546 | 65 | 71 | 2.0 | 6.0 | 0.00 | 0.00 | 0.00 | 92 | 1025.1 |
| 20260905070044 | 64 | 92 | 1.0 | 5.0 | 0.00 | 0.00 | 0.00 | 95 | 1025.0 |
| 20260905064542 | 64 | 0 | 0.0 | 1.0 | 0.00 | 0.00 | 0.00 | 95 | 1024.8 |
| 20260905063044 | 63 | 0 | 0.0 | 3.0 | 0.00 | 0.00 | 0.00 | 95 | 1024.6 |
| 20260905061546 | 63 | 0 | 0.0 | 3.0 | 0.00 | 0.00 | 0.00 | 95 | 1024.5 |
| 20260905060043 | 63 | 0 | 0.0 | 0.0 | 0.00 | 0.00 | 0.00 | 94 | 1024.5 |
| 20260905054549 | 63 | 0 | 0.0 | 0.0 | 0.00 | 0.00 | 0.00 | 94 | 1024.5 |
| 20260905053110 | 63 | 0 | 0.0 | 0.0 | 0.00 | 0.00 | 0.00 | 94 | 1024.5 |
| 20260905051544 | 63 | 0 | 0.0 | 0.0 | 0.00 | 0.00 | 0.00 | 94 | 1024.3 |
| 20260905050049 | 64 | 0 | 0.0 | 0.0 | 0.00 | 0.00 | 0.00 | 94 | 1024.1 |
| 20260905044545 | 64 | 0 | 0.0 | 0.0 | 0.00 | 0.00 | 0.00 | 94 | 1023.9 |
| 20260905043044 | 64 | 0 | 0.0 | 0.0 | 0.00 | 0.00 | 0.00 | 94 | 1023.9 |
| 20260905041546 | 64 | 0 | 0.0 | 0.0 | 0.00 | 0.00 | 0.00 | 94 | 1023.9 |
| 20260905040044 | 64 | 0 | 0.0 | 0.0 | 0.00 | 0.00 | 0.00 | 93 | 1023.8 |
| 20260905034547 | 64 | 0 | 0.0 | 2.0 | 0.00 | 0.00 | 0.00 | 93 | 1023.9 |
| 20260905033058 | 64 | 0 | 0.0 | 0.0 | 0.00 | 0.00 | 0.00 | 93 | 1023.6 |
| 20260905031551 | 64 | 0 | 0.0 | 0.0 | 0.00 | 0.00 | 0.00 | 93 | 1023.4 |
| 20260905030047 | 64 | 0 | 0.0 | 0.0 | 0.00 | 0.00 | 0.00 | 93 | 1023.4 |
| 20260905024543 | 64 | 0 | 0.0 | 0.0 | 0.00 | 0.00 | 0.00 | 93 | 1023.5 |
| 20260905023045 | 65 | 0 | 0.0 | 2.0 | 0.00 | 0.00 | 0.00 | 92 | 1023.1 |
| 20260905021549 | 65 | 0 | 0.0 | 1.0 | 0.00 | 0.00 | 0.00 | 92 | 1023.0 |
| 20260905020043 | 65 | 0 | 0.0 | 4.0 | 0.00 | 0.00 | 0.00 | 92 | 1022.9 |
| 20260905014544 | 65 | 0 | 0.0 | 3.0 | 0.00 | 0.00 | 0.00 | 92 | 1023.0 |
| 20260905013048 | 65 | 0 | 0.0 | 2.0 | 0.00 | 0.00 | 0.00 | 91 | 1022.9 |
| 20260905011544 | 65 | 0 | 0.0 | 2.0 | 0.00 | 0.00 | 0.00 | 91 | 1022.8 |
| 20260905010043 | 65 | 0 | 0.0 | 2.0 | 0.00 | 0.00 | 0.00 | 90 | 1022.8 |
| 20260905004551 | 65 | 279 | 0.0 | 2.0 | 0.00 | 0.00 | 0.00 | 90 | 1022.7 |
| 20260905003048 | 66 | 0 | 0.0 | 3.0 | 0.00 | 0.00 | 0.00 | 89 | 1022.7 |
| 20260905002033 | 66 | 0 | 0.0 | 3.0 | 0.00 | 0.00 | 0.00 | 88 | 1022.7 |
| 20260905000043 | 66 | 0 | 0.0 | 3.0 | 0.00 | 0.00 | 0.00 | 88 | 1022.5 |
| 20260904234555 | 67 | 0 | 0.0 | 0.0 | 0.00 | 0.00 | 0.00 | 87 | 1022.5 |
| 20260904233051 | 67 | 0 | 0.0 | 0.0 | 0.00 | 0.00 | 0.00 | 86 | 1022.5 |
| 20260904231546 | 68 | 0 | 0.0 | 2.0 | 0.00 | 0.00 | 0.00 | 86 | 1022.3 |
| 20260904230043 | 68 | 0 | 0.0 | 3.0 | 0.00 | 0.00 | 0.00 | 85 | 1022.4 |
| 20260904224602 | 68 | 0 | 0.0 | 2.0 | 0.00 | 0.00 | 0.00 | 85 | 1022.2 |
| 20260904223049 | 69 | 0 | 0.0 | 4.0 | 0.00 | 0.00 | 0.00 | 84 | 1022.2 |
| 20260904221548 | 69 | 0 | 0.0 | 3.0 | 0.00 | 0.00 | 0.00 | 83 | 1022.1 |
| 20260904220045 | 70 | 0 | 0.0 | 4.0 | 0.00 | 0.00 | 0.00 | 82 | 1022.1 |
| 20260904214551 | 70 | 0 | 0.0 | 6.0 | 0.00 | 0.00 | 0.00 | 82 | 1022.3 |
| 20260904213044 | 71 | 0 | 0.0 | 3.0 | 0.00 | 0.00 | 0.00 | 81 | 1022.1 |
| 20260904211544 | 71 | 0 | 0.0 | 3.0 | 0.00 | 0.00 | 0.00 | 79 | 1022.0 |
| 20260904210054 | 72 | 286 | 0.0 | 3.0 | 0.00 | 0.00 | 0.00 | 77 | 1021.7 |
| 20260904204544 | 72 | 0 | 0.0 | 2.0 | 0.00 | 0.00 | 0.00 | 75 | 1021.6 |
| 20260904203044 | 73 | 0 | 0.0 | 2.0 | 0.00 | 0.00 | 0.00 | 73 | 1021.7 |
| 20260904201601 | 74 | 0 | 0.0 | 3.0 | 0.00 | 0.00 | 0.00 | 71 | 1021.5 |
| 20260904200049 | 74 | 0 | 0.0 | 2.0 | 0.00 | 0.00 | 0.00 | 68 | 1021.4 |
| 20260904194600 | 75 | 0 | 0.0 | 1.0 | 0.00 | 0.00 | 0.00 | 67 | 1021.3 |
| 20260904193043 | 76 | 0 | 0.0 | 4.0 | 0.00 | 0.00 | 0.00 | 66 | 1021.1 |
| 20260904191555 | 76 | 0 | 0.0 | 3.0 | 0.00 | 0.00 | 0.00 | 66 | 1021.0 |
| 20260904190046 | 77 | 0 | 0.0 | 6.0 | 0.00 | 0.00 | 0.00 | 64 | 1020.7 |
| 20260904184544 | 78 | 267 | 1.0 | 6.0 | 0.00 | 0.00 | 0.00 | 62 | 1020.4 |
| 20260904183043 | 80 | 281 | 0.0 | 7.0 | 0.00 | 0.00 | 0.00 | 57 | 1020.3 |
| 20260904181548 | 81 | 273 | 1.0 | 10.0 | 0.00 | 0.00 | 0.00 | 49 | 1020.2 |
| 20260904180044 | 82 | 289 | 2.0 | 7.0 | 0.00 | 0.00 | 0.00 | 45 | 1020.0 |
| 20260904174550 | 83 | 273 | 1.0 | 9.0 | 0.00 | 0.00 | 0.00 | 43 | 1019.8 |
| 20260904173107 | 84 | 261 | 3.0 | 11.0 | 0.00 | 0.00 | 0.00 | 43 | 1019.9 |
| 20260904171555 | 85 | 274 | 2.0 | 9.0 | 0.00 | 0.00 | 0.00 | 43 | 1019.7 |
| 20260904170045 | 85 | 230 | 4.0 | 11.0 | 0.00 | 0.00 | 0.00 | 43 | 1019.7 |
| 20260904164555 | 85 | 283 | 2.0 | 10.0 | 0.00 | 0.00 | 0.00 | 47 | 1019.6 |